Погода в Ширин

Узбекистан     40°13′34″N   69°08′20″E
темп.,
°C
ветер,
м/с
пор.,
м/с
влажн.,
%
обл.,
%
осадки,
мм/ч
давл.,
гПа
погр.,
м
27 февраля, сб
сб2723:00−4ю115783 0.0 103049
02:00−4зюз0157100 0.0 102881
05:00−3сз1157100 0.0 102884
08:00−2вюв1151100 0.0 102874
11:00+2вюв3436100 0.0 1029488
14:00+5вюв4530100 0.1 1028813
17:00+5в363697 0.1 1028562
20:00+2вюв49451 0.0 1031168
28 февраля, вс
вс2823:00+2вюв1018361 0.0 1031600
02:00+2вюв1220380 0.0 1029645
05:00+1вюв1321420 0.0 1027625
08:00+2вюв1219410 0.0 1025642
11:00+6вюв1419330 0.0 1022812
14:00+9в1216280 0.0 1020873
17:00+10в1115270 0.0 1019815
20:00+7вюв815350 0.0 1021504
1 марта, пн
пн123:00+6вюв10173530 0.0 1021498
02:00+6вюв81637100 0.0 1021434
05:00+5вюв81442100 0.0 1021341
08:00+6вюв91641100 0.0 1021356
11:00+11вюв11162881 0.0 1020553
14:00+14вюв1114230 0.0 1019619
17:00+13вюв913210 0.0 1019575
20:00+10вюв915260 0.0 1021305
2 марта, вт
вт223:00+10вюв815280 0.0 1022293
02:00+9вюв81429100 0.0 1022281
05:00+9вюв81531100 0.0 1021289
08:00+9вюв81434100 0.0 1022309
11:00+13вюв61026100 0.0 1021490
14:00+16вюв5721100 0.0 1020583
17:00+15всв3522100 0.0 1020555
20:00+12ююз1233100 0.0 102224
3 марта, ср
ср323:00+11ююз1138100 0.0 102222
02:00+10в1142100 0.0 102122
05:00+9сз2353100 0.0 102036
08:00+9ссз2468100 0.0 1021169
11:00+12с2255100 0.0 1020770
14:00+13ссз6652100 0.0 10181154
17:00+10ссз7775100 0.1 1019694
20:00+9сз2281100 0.0 1019170